Regional Weather Roundup
Issued by NWS

Home | Current Version | Previous Version | Graphics & Text | Print | Product List | Glossary On
Versions: 1 2 3 4 5 6 7 8 9 10 11 12 13 14 15 16 17 18 19 20 21 22 23 24 25 26 27 28 29 30 31 32 33 34 35 36 37 38 39 40 41 42 43 44 45 46 47 48 49 50
000
ASUS43 KIND 252209
RWRIN

WEATHER ROUNDUP FOR INDIANA
NATIONAL WEATHER SERVICE INDIANAPOLIS IN
600 PM EDT SUN JUN 25 2017

NOTE: "FAIR" INDICATES FEW OR NO CLOUDS BELOW 12,000 FEET WITH NO
SIGNIFICANT WEATHER AND/OR OBSTRUCTIONS TO VISIBILITY.

* - STATION DOES NOT REPORT WEATHER SUCH AS PRECIPITATION OR FOG.

+ - STATION NOT QUALITY CONTROLLED BY THE NATIONAL WEATHER SERVICE.
    USE DATA WITH CAUTION...ESPECIALLY DEWPOINT AND RELATIVE
    HUMIDITY OBSERVATIONS.

INZ001>003-010>013-019-020-252300-
NORTHWEST INDIANA

CITY           SKY/WX    TMP DP  RH WIND       PRES   REMARKS
GARY /AIRPORT/ PTSUNNY   72  39  30 W15G30    30.08F
KNOX *+        PTSUNNY   72  32  23 W14G20    30.08S
LA PORTE +     PTSUNNY   69  44  41 W9G16     30.08F
MICHIGAN CITY+ PTSUNNY   72  45  37 NW7G16    30.07F
MONTICELLO +   PTSUNNY   71  43  36 W10G17    30.10F
VALPARAISO     CLOUDY    74  45  35 W15       30.08F

$$

LMZ046-743>745-252300-
SOUTHERN LAKE MICHIGAN

STATION/POSITION TIME  TEMP    WIND        PRES    WAVE
                       AIR SEA DIR/SP/G            HT
                 (UTC) (F)     (DEG/KT/KT) (MB)    (FT)
BURNS HARBOR     2140   69     270/ 12/ 15 1018.6F
MICHIGAN CITY    2140   67     260/ 10/ 11   N/A
5NW MICH CITY    2200   67 67  290/  8/ 12   N/A     2

$$

INZ004-005-014>016-021>024-252300-
NORTH CENTRAL INDIANA

CITY           SKY/WX    TMP DP  RH WIND       PRES   REMARKS
ELKHART        MOSUNNY  N/A N/A N/A NW12      30.05
GOSHEN         PTSUNNY   69  43  38 W15       30.07F
LOGANSPORT +   PTSUNNY   70  45  40 W12       30.11S
PERU/GRISSOM   MOSUNNY   72  47  40 W15       30.09F
ROCHESTER +    MOSUNNY   72  41  33 W7        30.09F
SOUTH BEND     MOSUNNY   70  46  42 W15G25    30.08S
WARSAW +       MOSUNNY   72  43  35 W14       30.08F

$$

INZ006>009-017-018-025>027-252300-
NORTHEAST INDIANA

CITY           SKY/WX    TMP DP  RH WIND       PRES   REMARKS
AUBURN +       MOSUNNY   70  43  37 W10G16    30.08S
FORT WAYNE     MOSUNNY   72  45  37 W17G23    30.08F
HUNTINGTON +   SUNNY     70  42  35 W13G21    30.09S
KENDALLVILLE + CLOUDY    69  44  40 W13       30.08S

$$

INZ028-029-035-036-043>045-051>053-252300-
WEST CENTRAL INDIANA

CITY           SKY/WX    TMP DP  RH WIND       PRES   REMARKS
CRAWFORDSVL +  PTSUNNY   71  46  41 W10       30.12S
GREENCASTLE +  MOSUNNY   72  41  33 W7        30.13S
LAFAYETTE      PTSUNNY   71  48  43 W13       30.10F
TERRE HAUTE    MOSUNNY   76  44  32 W8        30.12F

$$

INZ030>032-037>040-046>048-054>057-064-065-252300-
CENTRAL INDIANA

CITY           SKY/WX    TMP DP  RH WIND       PRES   REMARKS
CP ATTERBURY + PTSUNNY   75  48  38 W6        30.12F
COLUMBUS       MOSUNNY   75  39  27 W9G18     30.12F
FRANKFORT +    PTSUNNY   74  50  42 W12       30.13S
GREENWOOD *+   MOSUNNY   74  45  35 W10G17    30.12F
INDIANAPOLIS   MOSUNNY   74  46  36 W20       30.11F
-EAGLE CREEK   MOSUNNY   73  45  36 W13       30.10F
KOKOMO +       PTSUNNY   70  47  43 W15       30.11F
MARION +       MOSUNNY   72  45  37 W15G24    30.11F
MT COMFORT *+  PTSUNNY   72  48  43 NW13G18   30.12S
SHELBYVILLE    MOSUNNY   76  47  35 W14G21    30.10F
ZIONSVILLE +   MOSUNNY   72  49  44 W13G20    30.12S

$$

INZ033-034-041-042-049-050-058-059-252300-
EAST CENTRAL INDIANA

CITY           SKY/WX    TMP DP  RH WIND       PRES   REMARKS
MUNCIE         PTSUNNY   73  47  39 W15       30.10F
RICHMOND +     MOSUNNY   72  45  37 NW15      30.12F

$$

INZ060-061-067>069-081>083-085>088-252300-
SOUTHWEST INDIANA

CITY           SKY/WX    TMP DP  RH WIND       PRES   REMARKS
EVANSVILLE     MOSUNNY   82  44  26 W15G21    30.14F
HUNTINGBURG *+ SUNNY     80  49  33 W15       30.13F
WASHINGTON +   SUNNY     78  44  29 NW12      30.12F

$$

INZ062-063-066-070>080-084-089>092-252300-
SOUTH CENTRAL AND SOUTHEAST INDIANA

CITY           SKY/WX    TMP DP  RH WIND       PRES   REMARKS
BEDFORD +      MOSUNNY   77  45  31 W6        30.12
BLOOMINGTON    MOSUNNY   77  46  33 W8        30.12F
MADISON *+     SUNNY     79  37  22 W14G23    30.13F
NORTH VERNON + SUNNY     75  48  38 W14G23    30.12F
SEYMOUR +      SUNNY     79  48  34 W12G24    30.11F

$$





USA.gov is the U.S. government's official web portal to all federal, state and local government web resources and services.